Location: Bednik
(45.3500°N, 16.3833°E)
Time: 14:31:44
(UTC+00:00)

Cosmos 2084 Rocket - Pass Details

Date: 08 August 2020
Orbit: 550 x 631 km, 62.8° (Epoch: 18 September)

Event Time Altitude Azimuth Distance (km) Brightness Sun altitude
Exits shadow 21:59:01 41° 22° (NNE) 842 4.5 -27.3°
Drops below altitude 10° 22:01:56 10° 36° (NE) 1,905 6.5 -27.4°
Sets 22:04:14 0° 38° (NE) 2,824 7.4 -27.6°
